TimeEDT,TemperatureF,Dew PointF,Humidity,Sea Level PressureIn,VisibilityMPH,Wind Direction,Wind SpeedMPH,Gust SpeedMPH,PrecipitationIn,Events,Conditions,WindDirDegrees,DateUTC
12:53 AM,61.0,48.0,62,30.18,10.0,East,4.6,-,N/A,,Overcast,80,2013-05-18 04:53:00
1:53 AM,59.0,45.0,60,30.18,10.0,ESE,5.8,-,N/A,,Overcast,120,2013-05-18 05:53:00
2:53 AM,57.9,46.9,67,30.19,10.0,East,4.6,-,N/A,,Mostly Cloudy,90,2013-05-18 06:53:00
3:53 AM,57.0,48.0,72,30.20,10.0,East,4.6,-,N/A,,Overcast,80,2013-05-18 07:53:00
4:53 AM,54.0,46.9,77,30.21,10.0,ENE,5.8,-,N/A,,Scattered Clouds,60,2013-05-18 08:53:00
5:53 AM,55.9,48.0,75,30.22,10.0,East,3.5,-,N/A,,Overcast,80,2013-05-18 09:53:00
6:53 AM,57.9,48.9,72,30.24,10.0,East,3.5,-,N/A,,Mostly Cloudy,100,2013-05-18 10:53:00
7:53 AM,61.0,50.0,67,30.24,10.0,SE,4.6,-,N/A,,Partly Cloudy,130,2013-05-18 11:53:00
8:53 AM,64.9,48.9,56,30.24,10.0,SE,9.2,-,N/A,,Partly Cloudy,140,2013-05-18 12:53:00
9:53 AM,64.0,46.9,54,30.24,10.0,SSE,10.4,-,N/A,,Overcast,160,2013-05-18 13:53:00
10:53 AM,64.9,50.0,58,30.24,10.0,SSE,8.1,-,0.00,Rain,Light Rain,160,2013-05-18 14:53:00
11:53 AM,64.9,48.9,56,30.25,10.0,SE,5.8,-,0.00,,Overcast,140,2013-05-18 15:53:00
12:53 PM,66.0,50.0,56,30.23,10.0,SSE,6.9,-,N/A,,Overcast,150,2013-05-18 16:53:00
1:53 PM,66.9,50.0,54,30.22,10.0,SSE,8.1,-,N/A,,Overcast,160,2013-05-18 17:53:00
2:53 PM,64.9,53.1,65,30.21,10.0,ESE,5.8,-,0.01,Rain,Light Rain,120,2013-05-18 18:53:00
3:53 PM,66.0,53.1,63,30.21,10.0,ESE,10.4,-,0.00,,Overcast,120,2013-05-18 19:53:00
4:30 PM,62.6,55.4,77,30.22,1.8,ESE,8.1,-,0.06,Rain,Heavy Rain,110,2013-05-18 20:30:00
4:36 PM,60.8,55.4,82,30.23,4.0,East,9.2,-,0.08,Rain,Rain,100,2013-05-18 20:36:00
4:44 PM,60.8,55.4,82,30.23,5.0,East,6.9,-,0.08,Rain,Light Rain,100,2013-05-18 20:44:00
4:53 PM,61.0,55.0,81,30.23,10.0,SSW,4.6,-,0.08,Rain,Light Rain,210,2013-05-18 20:53:00
5:53 PM,60.1,55.9,86,30.24,8.0,SE,8.1,-,0.00,,Overcast,140,2013-05-18 21:53:00
6:53 PM,59.0,55.0,87,30.24,10.0,ESE,6.9,-,N/A,,Overcast,120,2013-05-18 22:53:00
7:53 PM,59.0,54.0,83,30.24,10.0,SE,9.2,-,N/A,,Overcast,130,2013-05-18 23:53:00
8:01 PM,59.0,53.6,82,30.25,10.0,ESE,9.2,-,N/A,,Overcast,120,2013-05-19 00:01:00
8:53 PM,59.0,55.0,87,30.25,10.0,ESE,6.9,-,N/A,,Overcast,120,2013-05-19 00:53:00
9:53 PM,57.9,55.0,90,30.26,4.0,ESE,6.9,-,0.00,,Overcast,110,2013-05-19 01:53:00
10:24 PM,57.2,55.4,94,30.26,8.0,East,6.9,-,N/A,,Overcast,100,2013-05-19 02:24:00
10:53 PM,57.9,55.0,90,30.25,10.0,ESE,8.1,-,N/A,,Overcast,120,2013-05-19 02:53:00
11:34 PM,57.2,55.4,94,30.24,10.0,ESE,5.8,-,N/A,,Overcast,120,2013-05-19 03:34:00
11:53 PM,57.9,55.0,90,30.25,10.0,East,4.6,-,N/A,,Overcast,100,2013-05-19 03:53:00